New Ulm, MN

7:39 AM CDT on July 29, 2017 (GMT -0500)
New Ulm Municipal

Weather History for KULM - November, 2013

Change the Weather History Date:

Tuesday, November 26, 2013

  Actual Average Record
Temperature  
Mean Temperature 19 °F -  
Max Temperature 30 °F 35 °F 62 °F (1998)
Min Temperature 8 °F 20 °F -17 °F (1977)
Degree Days  
Heating Degree Days 46    
Moisture  
Dew Point 10 °F    
Average Humidity 65    
Maximum Humidity 85    
Minimum Humidity 54    
Precipitation  
Precipitation 0.00 in - - ()
Sea Level Pressure  
Sea Level Pressure 30.26 in    
Wind  
Wind Speed 19 mph (NNW)    
Max Wind Speed 28 mph    
Max Gust Speed 34 mph    
Visibility 10 miles    
Events      
Averages and records for this station are not official NWS values.
T = Trace of Precipitation, MM = Missing Value Source: NWS Daily Summary

Daily Weather History Graph

Daily Weather History Graph

Search for Another Location

Airport or City:

Trip Planner

Search our weather history database for the weather conditions in past years. The results will help you decide how hot, cold, wet, or windy it might be!

Date:

Astronomy

Nov. 26, 2013 Rise Set
Actual Time 7:28 AM CST 4:42 PM CST
Civil Twilight 6:55 AM CST 5:14 PM CST
Nautical Twilight 6:20 AM CST 5:50 PM CST
Astronomical Twilight 5:45 AM CST 6:25 PM CST
Moon 12:17 AM CST (11/26) 1:02 PM CST (11/26)
Length of Visible Light 10h 18m
Length of Day
9h 14m
Last Quarter, 41% of the Moon is Illuminated
Nov 26
Last Quarter
Dec 2
New
Dec 9
First Quarter
Dec 17
Full
Dec 25
Last Quarter

Hourly Weather History & Observations

Time (CST) Temp. Windchill Dew Point Humidity Pressure Visibility Wind Dir Wind Speed Gust Speed Precip Events Conditions
12:13 AM 30.2 °F 18.9 °F 21.2 °F 69% 30.11 in 10.0 mi NW 16.1 mph 24.2 mph N/A   Overcast
12:33 AM 28.4 °F 14.4 °F 19.4 °F 69% 30.12 in 10.0 mi NW 23.0 mph 27.6 mph N/A   Overcast
12:53 AM 28.4 °F 14.7 °F 19.4 °F 69% 30.12 in 10.0 mi NW 21.9 mph 29.9 mph N/A   Overcast
1:13 AM 28.4 °F 15.4 °F 19.4 °F 69% 30.12 in 10.0 mi NW 19.6 mph 26.5 mph N/A   Overcast
1:33 AM 26.6 °F 12.0 °F 17.6 °F 69% 30.12 in 10.0 mi NW 23.0 mph 29.9 mph N/A   Overcast
1:53 AM 26.6 °F 12.4 °F 19.4 °F 74% 30.13 in 10.0 mi NW 21.9 mph 27.6 mph N/A   Overcast
2:13 AM 26.6 °F 12.0 °F 17.6 °F 69% 30.14 in 10.0 mi NW 23.0 mph 34.5 mph N/A   Overcast
2:33 AM 26.6 °F 12.7 °F 17.6 °F 69% 30.14 in 10.0 mi NW 20.7 mph 28.8 mph N/A   Overcast
2:53 AM 26.6 °F 11.7 °F 17.6 °F 69% 30.13 in 10.0 mi NW 24.2 mph 32.2 mph N/A   Overcast
3:13 AM 26.6 °F 13.4 °F 17.6 °F 69% 30.15 in 10.0 mi NW 18.4 mph 31.1 mph N/A   Overcast
3:33 AM 24.8 °F 11.1 °F 15.8 °F 69% 30.14 in 10.0 mi NNW 18.4 mph 27.6 mph N/A   Overcast
3:53 AM 24.8 °F 11.9 °F 15.8 °F 69% 30.14 in 10.0 mi NW 16.1 mph 27.6 mph N/A   Overcast
4:13 AM 24.8 °F 10.7 °F 15.8 °F 69% 30.14 in 10.0 mi NW 19.6 mph 27.6 mph N/A   Overcast
4:33 AM 23.0 °F 6.3 °F 12.2 °F 63% 30.15 in 10.0 mi NNW 26.5 mph 33.4 mph N/A   Overcast
4:52 AM 21.2 °F 4.2 °F 10.4 °F 63% 30.16 in 10.0 mi NNW 25.3 mph 34.5 mph N/A   Mostly Cloudy
5:13 AM 21.2 °F 5.6 °F 10.4 °F 63% 30.18 in 10.0 mi NNW 20.7 mph 29.9 mph N/A   Clear
5:33 AM 19.4 °F 5.5 °F 10.4 °F 68% 30.19 in 10.0 mi NW 15.0 mph 25.3 mph N/A   Clear
5:52 AM 19.4 °F 4.5 °F 10.4 °F 68% 30.20 in 10.0 mi NW 17.3 mph - N/A   Clear
6:13 AM 19.4 °F 3.2 °F 10.4 °F 68% 30.20 in 10.0 mi NNW 20.7 mph 26.5 mph N/A   Clear
6:33 AM 19.4 °F 3.6 °F 10.4 °F 68% 30.22 in 10.0 mi NNW 19.6 mph 25.3 mph N/A   Clear
6:52 AM 17.6 °F 3.7 °F 8.6 °F 68% 30.23 in 10.0 mi NNW 13.8 mph 25.3 mph N/A   Clear
7:13 AM 17.6 °F 3.2 °F 6.8 °F 63% 30.24 in 10.0 mi NNW 15.0 mph 21.9 mph N/A   Clear
7:33 AM 17.6 °F 5.0 °F 5.0 °F 58% 30.25 in 10.0 mi NW 11.5 mph - N/A   Clear
7:52 AM 17.6 °F 3.7 °F 6.8 °F 63% 30.26 in 10.0 mi NW 13.8 mph 21.9 mph N/A   Clear
8:13 AM 17.6 °F 2.2 °F 6.8 °F 63% 30.26 in 10.0 mi NW 17.3 mph - N/A   Clear
8:33 AM 17.6 °F 2.2 °F 8.6 °F 68% 30.27 in 10.0 mi NW 17.3 mph - N/A   Clear
8:52 AM 17.6 °F 2.2 °F 10.4 °F 73% 30.27 in 10.0 mi NW 17.3 mph 24.2 mph N/A   Clear
9:13 AM 17.6 °F 1.3 °F 10.4 °F 73% 30.28 in 10.0 mi NW 19.6 mph 26.5 mph N/A   Clear
9:32 AM 19.4 °F 3.6 °F 10.4 °F 68% 30.28 in 10.0 mi NW 19.6 mph 26.5 mph N/A   Clear
9:53 AM 19.4 °F 4.1 °F 10.4 °F 68% 30.29 in 10.0 mi NW 18.4 mph 28.8 mph N/A   Clear
10:13 AM 19.4 °F 2.8 °F 8.6 °F 63% 30.29 in 10.0 mi NW 21.9 mph 31.1 mph N/A   Clear
10:33 AM 21.2 °F 4.2 °F 8.6 °F 58% 30.30 in 10.0 mi NW 25.3 mph - N/A   Scattered Clouds
10:52 AM 21.2 °F 3.9 °F 8.6 °F 58% 30.30 in 10.0 mi NW 26.5 mph 31.1 mph N/A   Scattered Clouds
11:13 AM 21.2 °F 4.9 °F 8.6 °F 58% 30.30 in 10.0 mi NW 23.0 mph 29.9 mph N/A   Scattered Clouds
11:33 AM 19.4 °F 2.8 °F 8.6 °F 63% 30.29 in 10.0 mi NNW 21.9 mph 32.2 mph N/A   Scattered Clouds
11:52 AM 21.2 °F 5.6 °F 8.6 °F 58% 30.29 in 10.0 mi NNW 20.7 mph 31.1 mph N/A   Scattered Clouds
12:13 PM 21.2 °F 4.5 °F 6.8 °F 54% 30.27 in 10.0 mi NNW 24.2 mph 34.5 mph N/A   Scattered Clouds
12:33 PM 21.2 °F 4.9 °F 6.8 °F 54% 30.27 in 10.0 mi NW 23.0 mph 32.2 mph N/A   Scattered Clouds
12:52 PM 21.2 °F 5.2 °F 6.8 °F 54% 30.27 in 10.0 mi NW 21.9 mph 34.5 mph N/A   Scattered Clouds
1:13 PM 21.2 °F 5.6 °F 6.8 °F 54% 30.27 in 10.0 mi NNW 20.7 mph 34.5 mph N/A   Scattered Clouds
1:33 PM 21.2 °F 3.9 °F 6.8 °F 54% 30.26 in 10.0 mi NNW 26.5 mph 32.2 mph N/A   Scattered Clouds
1:52 PM 21.2 °F 3.9 °F 6.8 °F 54% 30.26 in 10.0 mi NW 26.5 mph 31.1 mph N/A   Scattered Clouds
2:13 PM 21.2 °F 3.5 °F 6.8 °F 54% 30.26 in 10.0 mi NW 27.6 mph 33.4 mph N/A   Scattered Clouds
2:33 PM 21.2 °F 4.2 °F 6.8 °F 54% 30.27 in 10.0 mi NNW 25.3 mph 34.5 mph N/A   Mostly Cloudy
2:52 PM 21.2 °F 5.6 °F 6.8 °F 54% 30.28 in 10.0 mi NNW 20.7 mph 31.1 mph N/A   Mostly Cloudy
3:13 PM 21.2 °F 5.2 °F 6.8 °F 54% 30.28 in 10.0 mi NNW 21.9 mph 31.1 mph N/A   Mostly Cloudy
3:33 PM 23.0 °F 6.0 °F 8.6 °F 54% 30.28 in 10.0 mi NNW 27.6 mph 31.1 mph N/A   Mostly Cloudy
3:52 PM 21.2 °F 4.9 °F 6.8 °F 54% 30.29 in 10.0 mi NNW 23.0 mph 31.1 mph N/A   Mostly Cloudy
4:13 PM 21.2 °F 4.9 °F 6.8 °F 54% 30.29 in 10.0 mi NNW 23.0 mph 31.1 mph N/A   Scattered Clouds
4:33 PM 19.4 °F 2.8 °F 6.8 °F 58% 30.29 in 10.0 mi NNW 21.9 mph 25.3 mph N/A   Scattered Clouds
4:52 PM 19.4 °F 3.2 °F 6.8 °F 58% 30.30 in 10.0 mi NNW 20.7 mph 25.3 mph N/A   Scattered Clouds
5:13 PM 19.4 °F 4.5 °F 8.6 °F 63% 30.32 in 10.0 mi NNW 17.3 mph 27.6 mph N/A   Scattered Clouds
5:33 PM 19.4 °F 5.0 °F 6.8 °F 58% 30.32 in 10.0 mi NNW 16.1 mph 24.2 mph N/A   Clear
5:52 PM 17.6 °F 3.2 °F 6.8 °F 63% 30.32 in 10.0 mi NNW 15.0 mph - N/A   Clear
6:13 PM 17.6 °F 2.2 °F 6.8 °F 63% 30.33 in 10.0 mi NNW 17.3 mph 24.2 mph N/A   Clear
6:33 PM 17.6 °F 2.2 °F 6.8 °F 63% 30.33 in 10.0 mi NNW 17.3 mph - N/A   Scattered Clouds
6:52 PM 17.6 °F 3.2 °F 6.8 °F 63% 30.34 in 10.0 mi NNW 15.0 mph 24.2 mph N/A   Scattered Clouds
7:13 PM 15.8 °F 1.4 °F 6.8 °F 68% 30.35 in 10.0 mi NNW 13.8 mph 19.6 mph N/A   Clear
7:33 PM 15.8 °F 1.4 °F 6.8 °F 68% 30.36 in 10.0 mi NNW 13.8 mph - N/A   Clear
7:52 PM 15.8 °F 4.2 °F 6.8 °F 68% 30.36 in 10.0 mi North 9.2 mph - N/A   Clear
8:13 PM 15.8 °F 3.4 °F 6.8 °F 68% 30.36 in 10.0 mi North 10.4 mph - N/A   Clear
8:33 PM 14.0 °F 2.0 °F 6.8 °F 73% 30.36 in 10.0 mi North 9.2 mph - N/A   Clear
8:52 PM 14.0 °F 1.2 °F 6.8 °F 73% 30.36 in 10.0 mi North 10.4 mph - N/A   Clear
9:13 PM 14.0 °F 2.0 °F 6.8 °F 73% 30.36 in 10.0 mi NNW 9.2 mph - N/A   Clear
9:33 PM 12.2 °F -0.2 °F 6.8 °F 79% 30.37 in 10.0 mi NNW 9.2 mph - N/A   Clear
9:52 PM 12.2 °F 1.7 °F 6.8 °F 79% 30.36 in 10.0 mi North 6.9 mph - N/A   Clear
10:13 PM 12.2 °F 1.7 °F 6.8 °F 79% 30.37 in 10.0 mi North 6.9 mph - N/A   Clear
10:33 PM 12.2 °F -1.0 °F 6.8 °F 79% 30.37 in 10.0 mi NNW 10.4 mph - N/A   Clear
10:52 PM 12.2 °F -0.2 °F 6.8 °F 79% 30.37 in 10.0 mi NNW 9.2 mph - N/A   Clear
11:13 PM 10.4 °F -1.5 °F 5.0 °F 79% 30.38 in 10.0 mi NNW 8.1 mph - N/A   Clear
11:32 PM 8.6 °F -2.6 °F 5.0 °F 85% 30.39 in 10.0 mi NW 6.9 mph - N/A   Clear
11:53 PM 8.6 °F -3.7 °F 5.0 °F 85% 30.39 in 10.0 mi NW 8.1 mph - N/A   Clear